Regional Weather Roundup
Issued by NWS

Home | Current Version | Previous Version | Text Only | Print | Product List | Glossary On
Versions: 1 2 3 4 5 6 7 8 9 10 11 12 13 14 15 16 17 18 19 20 21 22 23 24 25 26 27 28 29 30 31 32 33 34 35 36 37 38 39 40 41 42 43 44 45 46 47 48 49 50
000
ASPQ40 PGUM 190712
RWRPQ
WEATHER ROUNDUP FOR THE MARIANAS AND MICRONESIA
NATIONAL WEATHER SERVICE TIYAN GU
500 PM CHST FRI DEC 19 2014

GUZ001>004-190800-
MARIANA ISLANDS-

CITY           SKY/WX    TMP DP  RH WIND       PRES   REMARKS
GUAM AIRPORT   LGT RAIN  79  73  83 NE24G36   29.92R FOG
ANDERSEN AFB   CLOUDY    77  73  88 E18       29.91S
ROTA AIRPORT   MOSUNNY   81  73  78 NE15G26   29.92S
TINIAN AP      MOSUNNY   84  73  70 NE24G30   29.91S HX  91
SAIPAN AP      MOSUNNY   82  73  74 NE20G31   29.92R

$$

PMZ161-190800-
REPUBLIC OF PALAU-

CITY           SKY/WX    TMP DP  RH WIND       PRES   REMARKS
KOROR AP       PTSUNNY   82  77  83 E8        29.83F HX  91
KOROR WSO      PTSUNNY   84  72  65 E6        29.81F

$$

PMZ171>174-190800-
FEDERATED STATES OF MICRONESIA-

CITY           SKY/WX    TMP DP  RH WIND       PRES   REMARKS
YAP AIRPORT    PTSUNNY   84  77  79 NE16      29.81S HX  94
CHUUK AP       MOCLDY    84  77  79 VRB6      29.78S HX  94
POHNPEI AP     NOT AVBL
POHNPEI WSO    MOCLDY    84  75  74 E5        29.83R HX  92
KOSRAE AP      NOT AVBL

$$

PMZ181-190800-
REPUBLIC OF THE MARSHALL ISLANDS-

CITY           SKY/WX    TMP DP  RH WIND       PRES   REMARKS
KWAJALEIN AP   PTCLDY    82  75  78 NE16      29.82R
MAJURO AP      PTCLDY    84  77  79 NE12      29.78  HX  94
MAJURO WSO     PTCLDY    82  77  83 E9        29.79R HX  91

$$



USA.gov is the U.S. government's official web portal to all federal, state and local government web resources and services.